Total_Precipitation_Accumulation
0.53 0.72 0.64 0.43 0.44 0.39 0.30 0.29 0.21 0.10 0.08 0.17 0.16 0.11 0.08 0.08 0.10 0.11 0.13 0.16 0.17 0.17 0.21 0.24 0.31 0.38 0.41 0.43 0.49 0.57 0.72 0.90 1.07 1.20 1.27 1.23 1.16 1.00 0.95 0.93 0.89 0.80 0.75 0.77
0.62 0.58 0.30 0.22 0.27 0.32 0.33 0.37 0.28 0.16 0.10 0.19 0.18 0.11 0.08 0.08 0.11 0.13 0.14 0.18 0.20 0.17 0.20 0.22 0.28 0.40 0.45 0.48 0.51 0.55 0.66 0.79 0.97 1.11 1.17 1.23 1.18 1.09 1.00 0.96 0.94 0.86 0.77 0.80
0.50 0.34 0.20 0.26 0.36 0.45 0.40 0.35 0.27 0.24 0.19 0.22 0.25 0.18 0.06 0.06 0.07 0.10 0.11 0.14 0.17 0.19 0.19 0.20 0.25 0.36 0.45 0.48 0.53 0.58 0.63 0.70 0.82 1.08 1.31 1.43 1.47 1.35 1.18 1.06 0.97 0.86 0.79 0.74
0.39 0.23 0.25 0.33 0.37 0.46 0.46 0.23 0.24 0.29 0.45 0.45 0.36 0.39 0.09 0.04 0.05 0.07 0.09 0.10 0.12 0.16 0.16 0.17 0.22 0.30 0.39 0.46 0.57 0.66 0.66 0.73 0.83 1.00 1.30 1.46 1.50 1.38 1.12 0.97 0.95 0.91 0.85 0.78
0.53 0.27 0.32 0.37 0.27 0.32 0.36 0.24 0.28 0.35 0.56 0.64 0.43 0.47 0.16 0.07 0.08 0.07 0.07 0.08 0.09 0.13 0.15 0.14 0.17 0.23 0.33 0.47 0.59 0.70 0.76 0.82 0.92 1.00 1.18 1.41 1.51 1.43 1.29 1.14 1.02 0.96 0.94 0.89
0.43 0.29 0.35 0.30 0.20 0.25 0.33 0.39 0.48 0.57 0.93 1.20 0.43 0.39 0.22 0.12 0.13 0.10 0.08 0.09 0.10 0.13 0.15 0.14 0.15 0.18 0.29 0.45 0.54 0.70 0.82 0.85 0.98 1.03 1.13 1.27 1.44 1.54 1.50 1.38 1.25 1.09 1.03 0.98
0.53 0.38 0.36 0.31 0.34 0.39 0.60 1.02 1.54 1.67 1.73 1.05 0.21 0.27 0.25 0.13 0.10 0.12 0.14 0.13 0.12 0.12 0.14 0.14 0.13 0.16 0.23 0.41 0.53 0.67 0.83 0.83 0.92 1.00 1.08 1.20 1.35 1.50 1.60 1.51 1.34 1.23 1.18 1.09
0.65 0.50 0.38 0.37 0.42 0.54 0.63 0.93 1.28 1.17 0.74 0.29 0.14 0.23 0.20 0.11 0.07 0.06 0.09 0.11 0.12 0.12 0.12 0.14 0.14 0.15 0.19 0.29 0.43 0.57 0.78 0.80 0.82 0.90 0.99 1.13 1.31 1.48 1.57 1.59 1.42 1.30 1.22 1.11
0.77 0.47 0.24 0.22 0.25 0.36 0.58 0.66 0.61 0.85 0.61 0.36 0.24 0.19 0.16 0.08 0.05 0.04 0.05 0.07 0.10 0.12 0.11 0.12 0.15 0.16 0.19 0.25 0.35 0.49 0.73 0.80 0.75 0.81 0.90 1.03 1.18 1.38 1.47 1.51 1.50 1.37 1.29 1.22
0.93 0.65 0.30 0.25 0.31 0.38 0.47 0.59 0.69 1.12 1.05 0.61 0.34 0.20 0.21 0.14 0.08 0.06 0.07 0.07 0.09 0.10 0.10 0.10 0.13 0.14 0.18 0.22 0.32 0.46 0.63 0.81 0.79 0.78 0.85 0.94 1.03 1.20 1.34 1.45 1.55 1.43 1.36 1.32
0.85 0.90 0.56 0.46 0.60 0.65 0.58 0.75 0.96 1.01 0.80 0.65 0.48 0.34 0.28 0.20 0.14 0.12 0.09 0.08 0.09 0.09 0.10 0.10 0.12 0.13 0.15 0.19 0.27 0.43 0.57 0.72 0.85 0.87 0.84 0.93 1.01 1.13 1.23 1.26 1.34 1.43 1.44 1.38
0.81 1.07 0.81 0.53 0.47 0.50 0.63 0.72 0.83 1.05 0.81 0.46 0.47 0.41 0.26 0.17 0.14 0.14 0.11 0.09 0.08 0.08 0.10 0.10 0.11 0.12 0.14 0.17 0.22 0.34 0.52 0.66 0.78 0.87 0.91 0.92 1.00 1.13 1.19 1.16 1.14 1.21 1.32 1.35
1.19 1.46 1.20 0.89 0.76 0.66 0.83 0.76 0.72 0.76 0.71 0.55 0.46 0.34 0.20 0.14 0.12 0.13 0.12 0.10 0.08 0.07 0.08 0.10 0.11 0.12 0.14 0.16 0.21 0.27 0.39 0.56 0.70 0.82 0.92 0.88 0.98 1.07 1.09 1.10 1.12 1.12 1.18 1.31
1.33 1.47 1.12 1.02 0.94 0.84 0.82 0.68 0.61 0.78 0.93 0.57 0.32 0.24 0.20 0.17 0.15 0.14 0.13 0.11 0.11 0.09 0.08 0.09 0.12 0.12 0.13 0.14 0.16 0.22 0.31 0.43 0.63 0.80 0.94 0.87 0.91 1.02 1.01 1.03 1.10 1.11 1.14 1.26
1.13 1.17 0.59 0.36 0.30 0.40 0.47 0.45 0.47 0.62 0.61 0.49 0.30 0.22 0.24 0.23 0.22 0.21 0.18 0.14 0.11 0.11 0.09 0.09 0.11 0.14 0.15 0.14 0.15 0.18 0.25 0.32 0.51 0.74 0.92 0.94 0.90 0.96 1.01 1.01 1.08 1.15 1.20 1.27
1.00 1.01 0.51 0.28 0.19 0.26 0.33 0.29 0.32 0.35 0.37 0.34 0.25 0.29 0.24 0.23 0.20 0.20 0.18 0.16 0.15 0.14 0.12 0.09 0.10 0.13 0.15 0.16 0.16 0.18 0.21 0.27 0.40 0.59 0.78 0.89 0.88 0.92 1.00 0.98 1.05 1.12 1.20 1.26
0.96 0.94 0.80 0.45 0.20 0.41 0.57 0.38 0.36 0.36 0.36 0.35 0.35 0.34 0.27 0.25 0.24 0.23 0.20 0.18 0.19 0.19 0.16 0.13 0.13 0.14 0.15 0.15 0.17 0.20 0.21 0.22 0.31 0.46 0.64 0.78 0.81 0.81 0.87 0.90 0.99 1.08 1.18 1.19
0.80 0.90 1.09 0.73 0.54 0.90 0.63 0.30 0.31 0.38 0.42 0.39 0.36 0.32 0.29 0.28 0.28 0.25 0.22 0.22 0.22 0.21 0.19 0.17 0.17 0.17 0.16 0.14 0.15 0.17 0.19 0.21 0.26 0.37 0.53 0.71 0.76 0.75 0.76 0.80 0.85 0.95 1.07 1.14
0.48 0.87 1.32 1.08 0.80 0.55 0.33 0.21 0.31 0.42 0.48 0.39 0.31 0.25 0.24 0.23 0.23 0.24 0.21 0.17 0.17 0.18 0.18 0.18 0.20 0.22 0.20 0.18 0.17 0.18 0.20 0.21 0.25 0.37 0.49 0.62 0.73 0.73 0.69 0.75 0.78 0.83 0.90 1.00
0.57 0.95 1.50 1.29 0.97 0.58 0.36 0.17 0.20 0.36 0.54 0.32 0.25 0.22 0.22 0.24 0.31 0.28 0.19 0.13 0.10 0.11 0.13 0.14 0.15 0.18 0.19 0.20 0.20 0.21 0.25 0.25 0.28 0.40 0.51 0.56 0.65 0.67 0.64 0.70 0.77 0.79 0.80 0.86
0.90 1.36 1.51 1.09 0.89 0.44 0.24 0.14 0.19 0.49 0.59 0.29 0.22 0.20 0.21 0.28 0.32 0.23 0.14 0.12 0.09 0.09 0.10 0.11 0.13 0.15 0.18 0.21 0.22 0.23 0.26 0.30 0.32 0.40 0.47 0.52 0.57 0.61 0.60 0.67 0.70 0.75 0.78 0.80
0.69 0.95 0.95 0.88 0.97 0.53 0.22 0.21 0.44 0.53 0.26 0.19 0.17 0.16 0.17 0.18 0.16 0.13 0.12 0.11 0.10 0.09 0.09 0.10 0.12 0.13 0.15 0.18 0.20 0.21 0.27 0.33 0.37 0.39 0.42 0.49 0.55 0.57 0.58 0.68 0.68 0.68 0.75 0.79
0.54 0.75 0.77 0.72 0.64 0.41 0.30 0.34 0.35 0.28 0.21 0.16 0.15 0.14 0.16 0.16 0.15 0.14 0.14 0.12 0.12 0.10 0.09 0.09 0.11 0.13 0.14 0.17 0.19 0.21 0.25 0.32 0.41 0.41 0.42 0.47 0.55 0.61 0.63 0.69 0.71 0.71 0.72 0.76
0.38 0.42 0.54 0.47 0.36 0.30 0.28 0.25 0.20 0.16 0.16 0.15 0.15 0.16 0.17 0.17 0.16 0.16 0.16 0.15 0.15 0.14 0.12 0.11 0.12 0.15 0.17 0.20 0.21 0.23 0.26 0.33 0.42 0.42 0.43 0.47 0.53 0.62 0.64 0.68 0.70 0.72 0.75 0.84
0.32 0.34 0.41 0.39 0.29 0.23 0.19 0.19 0.19 0.16 0.13 0.12 0.13 0.14 0.16 0.17 0.17 0.17 0.18 0.18 0.18 0.17 0.14 0.12 0.12 0.15 0.19 0.22 0.23 0.23 0.26 0.34 0.42 0.45 0.44 0.46 0.50 0.61 0.65 0.67 0.70 0.73 0.71 0.90
0.24 0.31 0.38 0.34 0.26 0.29 0.24 0.19 0.18 0.18 0.16 0.14 0.15 0.15 0.14 0.15 0.17 0.18 0.20 0.21 0.20 0.19 0.16 0.14 0.14 0.15 0.19 0.23 0.25 0.25 0.27 0.33 0.42 0.47 0.49 0.48 0.51 0.61 0.65 0.67 0.72 0.76 0.76 0.80